| time (UTC) | temp F | wind direction | speed knots | gust knots | rain 1hr in | rain 24hr in | rain mn in | humidity % | barometer mb |
| 20260504185520 | 69 | 303 | 3.5 | 7.8 | 0.00 | 0.00 | 0.00 | 53 | 1010.4 |
| 20260504185021 | 69 | 262 | 4.3 | 7.8 | 0.00 | 0.00 | 0.00 | 54 | 1010.4 |
| 20260504184541 | 69 | 249 | 3.5 | 7.8 | 0.00 | 0.00 | 0.00 | 54 | 1010.4 |
| 20260504184022 | 69 | 270 | 2.6 | 7.8 | 0.00 | 0.00 | 0.00 | 55 | 1010.4 |
| 20260504183522 | 69 | 246 | 3.5 | 7.8 | 0.00 | 0.00 | 0.00 | 53 | 1010.5 |
| 20260504183041 | 69 | 266 | 3.5 | 7.0 | 0.00 | 0.00 | 0.00 | 54 | 1010.6 |
| 20260504182521 | 69 | 229 | 3.5 | 7.8 | 0.00 | 0.00 | 0.00 | 54 | 1010.4 |
| 20260504182023 | 69 | 273 | 3.5 | 7.8 | 0.00 | 0.00 | 0.00 | 55 | 1010.4 |
| 20260504181538 | 69 | 212 | 4.3 | 7.0 | 0.00 | 0.00 | 0.00 | 54 | 1010.4 |
| 20260504181021 | 69 | 262 | 3.5 | 8.7 | 0.00 | 0.00 | 0.00 | 55 | 1010.4 |
| 20260504180523 | 69 | 232 | 3.5 | 8.7 | 0.00 | 0.00 | 0.00 | 55 | 1010.5 |
| 20260504180037 | 69 | 234 | 3.5 | 7.0 | 0.00 | 0.00 | 0.00 | 54 | 1010.4 |
| 20260504175521 | 69 | 277 | 2.6 | 7.0 | 0.00 | 0.00 | 0.00 | 56 | 1010.4 |
| 20260504175022 | 69 | 264 | 2.6 | 7.0 | 0.00 | 0.00 | 0.00 | 56 | 1010.4 |
| 20260504174541 | 69 | 243 | 2.6 | 6.1 | 0.00 | 0.00 | 0.00 | 55 | 1010.4 |
| 20260504174022 | 68 | 236 | 3.5 | 6.1 | 0.00 | 0.00 | 0.00 | 59 | 1010.4 |
| 20260504173520 | 68 | 288 | 2.6 | 7.0 | 0.00 | 0.00 | 0.00 | 60 | 1010.4 |
| 20260504173040 | 67 | 276 | 5.2 | 7.0 | 0.00 | 0.00 | 0.00 | 59 | 1010.4 |
| 20260504172520 | 68 | 271 | 4.3 | 6.1 | 0.00 | 0.00 | 0.00 | 60 | 1010.5 |
| 20260504172020 | 68 | 226 | 1.7 | 6.1 | 0.00 | 0.00 | 0.00 | 62 | 1010.5 |
| 20260504171547 | 68 | 238 | 2.6 | 6.1 | 0.00 | 0.00 | 0.00 | 62 | 1010.5 |
| 20260504171022 | 67 | 230 | 2.6 | 7.0 | 0.00 | 0.00 | 0.00 | 64 | 1010.6 |
| 20260504170521 | 67 | 241 | 2.6 | 7.0 | 0.00 | 0.00 | 0.00 | 65 | 1010.6 |
| 20260504151021 | 63 | 122 | 0.0 | 1.7 | 0.00 | 0.00 | 0.00 | 83 | 1010.7 |
| 20260504150522 | 61 | 0 | 0.9 | 1.7 | 0.00 | 0.00 | 0.00 | 83 | 1010.5 |
| 20260504141024 | 57 | 0 | 0.0 | 0.0 | 0.00 | 0.00 | 0.00 | 86 | 1010.2 |
| 20260504140521 | 57 | 0 | 0.0 | 0.0 | 0.00 | 0.00 | 0.00 | 86 | 1010.1 |
| 20260504130521 | 50 | 301 | 0.9 | 2.6 | 0.00 | 0.00 | 0.00 | 93 | 1009.7 |
| 20260504110521 | 50 | 263 | 1.7 | 1.7 | 0.00 | 0.00 | 0.00 | 90 | 1009.6 |
| 20260504100523 | 50 | 286 | 1.7 | 1.7 | 0.00 | 0.00 | 0.00 | 91 | 1009.4 |
| 20260504081551 | 52 | 0 | 0.0 | 0.0 | 0.00 | 0.00 | 0.00 | 90 | 1009.2 |
| 20260504081021 | 52 | 0 | 0.0 | 0.0 | 0.00 | 0.00 | 0.00 | 89 | 1009.0 |
| 20260504080521 | 52 | 0 | 0.0 | 0.0 | 0.00 | 0.00 | 0.00 | 90 | 1009.1 |
| 20260504050524 | 56 | 322 | 0.0 | 0.9 | 0.00 | 0.00 | 0.00 | 87 | 1009.2 |
| 20260504045521 | 56 | 298 | 0.9 | 0.9 | 0.00 | 0.00 | 0.00 | 87 | 1009.2 |
| 20260504045023 | 56 | 298 | 0.9 | 0.9 | 0.00 | 0.00 | 0.00 | 86 | 1009.3 |
| 20260504044536 | 56 | 318 | 0.9 | 0.9 | 0.00 | 0.00 | 0.00 | 86 | 1009.3 |
| 20260504044022 | 56 | 319 | 0.9 | 1.7 | 0.00 | 0.00 | 0.00 | 87 | 1009.4 |
| 20260504043521 | 57 | 319 | 0.9 | 1.7 | 0.00 | 0.00 | 0.00 | 86 | 1009.2 |
| 20260504043046 | 57 | 245 | 0.9 | 0.9 | 0.00 | 0.00 | 0.00 | 85 | 1009.3 |
| 20260504042521 | 57 | 246 | 0.0 | 0.9 | 0.00 | 0.00 | 0.00 | 84 | 1009.3 |
| 20260504042022 | 57 | 246 | 0.9 | 1.7 | 0.00 | 0.00 | 0.00 | 84 | 1009.3 |
| 20260504041538 | 57 | 246 | 0.9 | 1.7 | 0.00 | 0.00 | 0.00 | 83 | 1009.3 |
| 20260504041022 | 58 | 238 | 0.0 | 0.9 | 0.00 | 0.00 | 0.00 | 83 | 1009.3 |
| 20260504040521 | 58 | 0 | 0.0 | 0.0 | 0.00 | 0.00 | 0.00 | 83 | 1009.2 |
| 20260504040045 | 58 | 0 | 0.0 | 0.9 | 0.00 | 0.00 | 0.00 | 82 | 1009.3 |
| 20260504035522 | 59 | 0 | 0.0 | 0.9 | 0.00 | 0.00 | 0.00 | 81 | 1009.2 |
| 20260504035024 | 59 | 238 | 0.9 | 0.9 | 0.00 | 0.00 | 0.00 | 80 | 1009.2 |
| 20260504034540 | 60 | 238 | 0.9 | 0.9 | 0.00 | 0.00 | 0.00 | 79 | 1009.2 |
| 20260504034023 | 60 | 237 | 0.0 | 0.9 | 0.00 | 0.00 | 0.00 | 78 | 1009.2 |
| 20260504033520 | 60 | 0 | 0.0 | 0.0 | 0.00 | 0.00 | 0.00 | 77 | 1009.2 |
| 20260504033041 | 61 | 0 | 0.0 | 0.9 | 0.00 | 0.00 | 0.00 | 76 | 1009.3 |
| 20260504032521 | 62 | 0 | 0.0 | 1.7 | 0.00 | 0.00 | 0.00 | 75 | 1009.3 |
| 20260504032022 | 62 | 0 | 0.0 | 1.7 | 0.00 | 0.00 | 0.00 | 74 | 1009.3 |
| 20260504031540 | 63 | 238 | 0.0 | 1.7 | 0.00 | 0.00 | 0.00 | 73 | 1009.4 |
| 20260504031021 | 64 | 176 | 0.0 | 1.7 | 0.00 | 0.00 | 0.00 | 72 | 1009.4 |
| 20260504030521 | 65 | 207 | 0.0 | 1.7 | 0.00 | 0.00 | 0.00 | 71 | 1009.3 |
| 20260504030044 | 65 | 236 | 0.0 | 1.7 | 0.00 | 0.00 | 0.00 | 70 | 1009.2 |
| 20260504025525 | 65 | 153 | 0.0 | 1.7 | 0.00 | 0.00 | 0.00 | 70 | 1009.4 |
| 20260504025020 | 66 | 210 | 0.0 | 1.7 | 0.00 | 0.00 | 0.00 | 70 | 1009.4 |
| 20260504024544 | 66 | 158 | 0.9 | 1.7 | 0.00 | 0.00 | 0.00 | 69 | 1009.3 |
| 20260504024021 | 66 | 162 | 0.9 | 2.6 | 0.00 | 0.00 | 0.00 | 69 | 1009.4 |
| 20260504023524 | 66 | 143 | 0.9 | 3.5 | 0.00 | 0.00 | 0.00 | 70 | 1009.3 |
| 20260504023041 | 66 | 156 | 0.9 | 4.3 | 0.00 | 0.00 | 0.00 | 69 | 1009.4 |
| 20260504022521 | 66 | 224 | 1.7 | 4.3 | 0.00 | 0.00 | 0.00 | 69 | 1009.4 |
| 20260504022020 | 66 | 174 | 1.7 | 3.5 | 0.00 | 0.00 | 0.00 | 68 | 1009.4 |
| 20260504021539 | 67 | 165 | 1.7 | 3.5 | 0.00 | 0.00 | 0.00 | 68 | 1009.5 |
| 20260504021023 | 68 | 158 | 1.7 | 3.5 | 0.00 | 0.00 | 0.00 | 67 | 1009.4 |
| 20260504020520 | 68 | 165 | 0.9 | 3.5 | 0.00 | 0.00 | 0.00 | 67 | 1009.5 |
| 20260504020037 | 69 | 171 | 0.0 | 2.6 | 0.00 | 0.00 | 0.00 | 66 | 1009.5 |
| 20260504015523 | 69 | 223 | 0.9 | 2.6 | 0.00 | 0.00 | 0.00 | 66 | 1009.6 |
| 20260504015024 | 69 | 211 | 0.9 | 2.6 | 0.00 | 0.00 | 0.00 | 66 | 1009.7 |
| 20260504014540 | 69 | 176 | 0.9 | 2.6 | 0.00 | 0.00 | 0.00 | 66 | 1009.7 |
| 20260504014020 | 69 | 171 | 0.9 | 2.6 | 0.00 | 0.00 | 0.00 | 67 | 1009.8 |
| 20260504013523 | 68 | 235 | 0.9 | 2.6 | 0.00 | 0.00 | 0.00 | 70 | 1009.7 |
| 20260504013052 | 67 | 155 | 1.7 | 3.5 | 0.00 | 0.00 | 0.00 | 70 | 1009.7 |
| 20260504012524 | 68 | 142 | 0.9 | 3.5 | 0.00 | 0.00 | 0.00 | 70 | 1009.9 |
| 20260504012023 | 68 | 164 | 1.7 | 3.5 | 0.00 | 0.00 | 0.00 | 69 | 1009.8 |
| 20260504011540 | 68 | 185 | 0.9 | 3.5 | 0.00 | 0.00 | 0.00 | 70 | 1009.9 |
| 20260504011019 | 68 | 163 | 1.7 | 3.5 | 0.00 | 0.00 | 0.00 | 69 | 1010.1 |
| 20260504010523 | 69 | 195 | 1.7 | 3.5 | 0.00 | 0.00 | 0.00 | 66 | 1010.1 |
| 20260504010046 | 71 | 153 | 1.7 | 3.5 | 0.00 | 0.00 | 0.00 | 65 | 1010.1 |
| 20260504005521 | 70 | 147 | 1.7 | 3.5 | 0.00 | 0.00 | 0.00 | 64 | 1010.2 |
| 20260504005023 | 70 | 143 | 1.7 | 4.3 | 0.00 | 0.00 | 0.00 | 65 | 1010.2 |
| 20260504004541 | 70 | 168 | 2.6 | 4.3 | 0.00 | 0.00 | 0.00 | 63 | 1010.4 |
| 20260504004024 | 70 | 165 | 2.6 | 5.2 | 0.00 | 0.00 | 0.00 | 64 | 1010.4 |
| 20260504003523 | 70 | 146 | 1.7 | 5.2 | 0.00 | 0.00 | 0.00 | 64 | 1010.4 |
| 20260504003038 | 71 | 150 | 2.6 | 5.2 | 0.00 | 0.00 | 0.00 | 62 | 1010.6 |
| 20260504002520 | 71 | 146 | 1.7 | 3.5 | 0.00 | 0.00 | 0.00 | 62 | 1010.5 |
| 20260504002020 | 71 | 206 | 0.9 | 3.5 | 0.00 | 0.00 | 0.00 | 63 | 1010.6 |
| 20260504001540 | 71 | 149 | 1.7 | 3.5 | 0.00 | 0.00 | 0.00 | 63 | 1010.7 |
| 20260504001023 | 72 | 202 | 1.7 | 4.3 | 0.00 | 0.00 | 0.00 | 62 | 1010.7 |
| 20260504000523 | 72 | 181 | 1.7 | 4.3 | 0.00 | 0.00 | 0.00 | 62 | 1010.7 |
| 20260504000046 | 73 | 153 | 0.9 | 4.3 | 0.00 | 0.00 | 0.00 | 61 | 1010.9 |
| 20260503235523 | 72 | 218 | 1.7 | 4.3 | 0.00 | 0.00 | 0.00 | 61 | 1010.9 |
| 20260503235023 | 72 | 242 | 1.7 | 4.3 | 0.00 | 0.00 | 0.00 | 61 | 1010.9 |
| 20260503234543 | 72 | 302 | 0.9 | 4.3 | 0.00 | 0.00 | 0.00 | 59 | 1011.1 |
| 20260503234023 | 72 | 272 | 2.6 | 5.2 | 0.00 | 0.00 | 0.00 | 58 | 1011.1 |
| 20260503233523 | 72 | 240 | 2.6 | 5.2 | 0.00 | 0.00 | 0.00 | 57 | 1011.1 |
| 20260503233045 | 72 | 235 | 1.7 | 5.2 | 0.00 | 0.00 | 0.00 | 59 | 1011.0 |
| 20260503232523 | 73 | 224 | 2.6 | 5.2 | 0.00 | 0.00 | 0.00 | 58 | 1011.1 |
| 20260503232022 | 73 | 203 | 2.6 | 5.2 | 0.00 | 0.00 | 0.00 | 56 | 1011.1 |
| 20260503231541 | 74 | 220 | 1.7 | 4.3 | 0.00 | 0.00 | 0.00 | 60 | 1011.1 |
| 20260503231023 | 74 | 218 | 2.6 | 6.1 | 0.00 | 0.00 | 0.00 | 53 | 1011.2 |
| 20260503230526 | 73 | 278 | 3.5 | 6.1 | 0.00 | 0.00 | 0.00 | 52 | 1011.2 |
| 20260503230038 | 72 | 280 | 1.7 | 6.1 | 0.00 | 0.00 | 0.00 | 55 | 1011.2 |
| 20260503225522 | 73 | 70 | 1.7 | 6.1 | 0.00 | 0.00 | 0.00 | 61 | 1011.3 |
| 20260503225022 | 73 | 146 | 0.9 | 6.1 | 0.00 | 0.00 | 0.00 | 53 | 1011.2 |
| 20260503224537 | 73 | 305 | 2.6 | 9.6 | 0.00 | 0.00 | 0.00 | 53 | 1011.5 |
| 20260503224022 | 73 | 247 | 2.6 | 9.6 | 0.00 | 0.00 | 0.00 | 53 | 1011.4 |
| 20260503223522 | 73 | 303 | 4.3 | 7.8 | 0.00 | 0.00 | 0.00 | 49 | 1011.5 |
| 20260503223044 | 73 | 260 | 4.3 | 7.8 | 0.00 | 0.00 | 0.00 | 51 | 1011.7 |
| 20260503222522 | 72 | 288 | 4.3 | 7.8 | 0.00 | 0.00 | 0.00 | 52 | 1011.8 |
| 20260503222022 | 72 | 302 | 4.3 | 8.7 | 0.00 | 0.00 | 0.00 | 56 | 1012.0 |
| 20260503221543 | 72 | 256 | 4.3 | 9.6 | 0.00 | 0.00 | 0.00 | 54 | 1012.1 |
| 20260503221022 | 72 | 285 | 6.1 | 9.6 | 0.00 | 0.00 | 0.00 | 53 | 1012.2 |
| 20260503220522 | 72 | 304 | 6.1 | 9.6 | 0.00 | 0.00 | 0.00 | 52 | 1012.2 |
| 20260503220041 | 72 | 300 | 6.1 | 9.6 | 0.00 | 0.00 | 0.00 | 54 | 1012.3 |
| 20260503215521 | 72 | 248 | 1.7 | 7.0 | 0.00 | 0.00 | 0.00 | 59 | 1012.4 |
| 20260503215021 | 72 | 298 | 2.6 | 7.0 | 0.00 | 0.00 | 0.00 | 58 | 1012.4 |
| 20260503214541 | 72 | 255 | 2.6 | 5.2 | 0.00 | 0.00 | 0.00 | 57 | 1012.5 |
| 20260503214022 | 72 | 217 | 2.6 | 5.2 | 0.00 | 0.00 | 0.00 | 58 | 1012.5 |
| 20260503213522 | 72 | 295 | 2.6 | 5.2 | 0.00 | 0.00 | 0.00 | 57 | 1012.4 |
| 20260503213040 | 72 | 275 | 1.7 | 5.2 | 0.00 | 0.00 | 0.00 | 60 | 1012.5 |
| 20260503212523 | 71 | 250 | 1.7 | 4.3 | 0.00 | 0.00 | 0.00 | 62 | 1012.7 |
| 20260503212023 | 71 | 303 | 1.7 | 8.7 | 0.00 | 0.00 | 0.00 | 61 | 1012.8 |
| 20260503211538 | 71 | 248 | 2.6 | 8.7 | 0.00 | 0.00 | 0.00 | 62 | 1012.7 |
| 20260503211022 | 71 | 285 | 3.5 | 7.8 | 0.00 | 0.00 | 0.00 | 60 | 1012.8 |
| 20260503210522 | 71 | 287 | 1.7 | 7.8 | 0.00 | 0.00 | 0.00 | 60 | 1013.0 |
| 20260503210043 | 71 | 207 | 0.9 | 6.1 | 0.00 | 0.00 | 0.00 | 61 | 1013.0 |
| 20260503205524 | 71 | 234 | 0.9 | 5.2 | 0.00 | 0.00 | 0.00 | 63 | 1013.1 |
| 20260503205022 | 70 | 113 | 0.0 | 7.0 | 0.00 | 0.00 | 0.00 | 65 | 1013.1 |
| 20260503204543 | 69 | 297 | 3.5 | 7.0 | 0.00 | 0.00 | 0.00 | 60 | 1013.1 |
| 20260503204022 | 69 | 295 | 4.3 | 7.0 | 0.00 | 0.00 | 0.00 | 59 | 1013.2 |
| 20260503203522 | 69 | 257 | 3.5 | 7.0 | 0.00 | 0.00 | 0.00 | 63 | 1013.3 |
| 20260503203049 | 69 | 308 | 2.6 | 7.0 | 0.00 | 0.00 | 0.00 | 62 | 1013.3 |
| 20260503202522 | 69 | 309 | 3.5 | 7.0 | 0.00 | 0.00 | 0.00 | 65 | 1013.3 |
| 20260503202021 | 69 | 292 | 3.5 | 6.1 | 0.00 | 0.00 | 0.00 | 62 | 1013.4 |
| 20260503201545 | 69 | 289 | 3.5 | 7.8 | 0.00 | 0.00 | 0.00 | 62 | 1013.4 |
| 20260503201022 | 69 | 299 | 2.6 | 7.8 | 0.00 | 0.00 | 0.00 | 61 | 1013.5 |
| 20260503200521 | 68 | 304 | 3.5 | 7.0 | 0.00 | 0.00 | 0.00 | 63 | 1013.6 |
| 20260503200038 | 68 | 274 | 2.6 | 7.0 | 0.00 | 0.00 | 0.00 | 63 | 1013.7 |
| 20260503195525 | 68 | 289 | 0.9 | 7.0 | 0.00 | 0.00 | 0.00 | 64 | 1013.8 |
| 20260503195021 | 67 | 279 | 2.6 | 9.6 | 0.00 | 0.00 | 0.00 | 67 | 1013.8 |
| 20260503194541 | 67 | 335 | 4.3 | 9.6 | 0.00 | 0.00 | 0.00 | 66 | 1013.9 |
| 20260503194022 | 66 | 321 | 7.0 | 11.3 | 0.00 | 0.00 | 0.00 | 64 | 1014.0 |
| 20260503193522 | 66 | 310 | 6.1 | 11.3 | 0.00 | 0.00 | 0.00 | 66 | 1014.0 |
| 20260503193046 | 66 | 314 | 7.8 | 11.3 | 0.00 | 0.00 | 0.00 | 66 | 1014.0 |
| 20260503192523 | 66 | 298 | 6.1 | 9.6 | 0.00 | 0.00 | 0.00 | 66 | 1014.0 |
| 20260503192022 | 66 | 313 | 6.1 | 9.6 | 0.00 | 0.00 | 0.00 | 67 | 1014.0 |
| 20260503191542 | 66 | 312 | 5.2 | 8.7 | 0.00 | 0.00 | 0.00 | 68 | 1013.9 |
| 20260503191022 | 66 | 280 | 6.1 | 8.7 | 0.00 | 0.00 | 0.00 | 68 | 1014.1 |
| 20260503190522 | 66 | 288 | 6.1 | 8.7 | 0.00 | 0.00 | 0.00 | 67 | 1014.2 |
| 20260503190045 | 67 | 310 | 3.5 | 8.7 | 0.00 | 0.00 | 0.00 | 65 | 1014.2 |